Flag for U.S.A. Weather past 2 weeks in Jacksonville, North Carolina, U.S.A.

Now
54 °F

Overcast.


Feels Like: 54 °F
Forecast: 50 / 67 °F
Wind: 3 mph from West

Location: Jacksonville - New River

Current Time: Apr 25, 2015 at 8:55:13 AM

Latest Report: Apr 25, 2015 at 7:56 AM


Visibility: 10 mi

Pressure: 29.93 "Hg

Humidity: 83%

Dew point: 49 °F

Location of JacksonvilleLocation

Historic Weather in Jacksonville — Graph

°F

Jacksonville temperature yesterday

Maximum temperature yesterday: 68 °F (at 4:56 PM)
Minimum temperature yesterday: 48 °F (at 6:56 AM)
Average temperature yesterday: 58 °F

Past Weeks' High & Low Weather Summary

 TemperatureHumidityPressure
High82 °F (Apr 10, 12:56 PM)97% (Apr 18, 1:56 AM)30.35 "Hg (Apr 18, 1:56 AM)
Low48 °F (Apr 24, 6:56 AM)22% (Apr 24, 4:56 PM)29.72 "Hg (Apr 20, 5:56 PM)
Average67 °F70%30.03 "Hg
* Reported Apr 10 6:56 AM — Apr 25 6:56 AM, Jacksonville, Weather by CustomWeather, © 2015

Note: Actual official high and low records may vary slightly from our data, if they occured in-between our weather recording intervals... More about our weather records

Advertising

Jacksonville weather history for previous 24 hours

 ConditionsComfort  
Time TempWeatherWind HumidityBarometerVisibility
6:56 AM
Sat, Apr 25
54 °FClear.No wind77%29.94 "Hg10 mi
5:56 AM51 °FPassing clouds.3 mph80%29.93 "Hg10 mi
4:56 AM51 °FClear.6 mph83%29.94 "Hg10 mi
3:56 AM51 °FClear.5 mph83%29.95 "Hg10 mi
2:56 AM52 °FClear.6 mph77%29.95 "Hg10 mi
1:56 AM52 °FClear.3 mph75%29.96 "Hg10 mi
12:56 AM53 °FClear.No wind72%29.98 "Hg10 mi
11:56 PM
Fri, Apr 24
54 °FClear.3 mph67%29.98 "Hg10 mi
10:56 PM56 °FClear.6 mph62%30.00 "Hg10 mi
9:56 PM56 °FClear.7 mph65%30.01 "Hg10 mi
8:56 PM56 °FClear.5 mph62%29.99 "Hg10 mi
7:56 PM58 °FSunny.No wind46%29.98 "Hg10 mi
6:56 PM65 °FSunny.7 mph25%29.97 "Hg10 mi
5:56 PM68 °FSunny.8 mph23%29.98 "Hg10 mi
4:56 PM68 °FSunny.12 mph22%29.97 "Hg10 mi
3:56 PM67 °FSunny.8 mph24%29.98 "Hg10 mi
2:56 PM67 °FSunny.13 mph23%30.00 "Hg10 mi
1:56 PM65 °FSunny.10 mph23%30.01 "Hg10 mi
12:56 PM64 °FSunny.17 mph25%30.03 "Hg10 mi
11:56 AM62 °FSunny.14 mph27%30.05 "Hg10 mi
10:56 AM60 °FSunny.13 mph32%30.06 "Hg9 mi
9:56 AM58 °FSunny.15 mph35%30.04 "Hg10 mi
8:56 AM54 °FSunny.9 mph49%30.04 "Hg10 mi
Weather by CustomWeather, © 2015

See weather overviewHow to use our weather pages